Location: ???????
(55.8860°N, 38.0932°E)
Time: 01:11:31
(UTC+00:00)

COBE Rocket - Pass Details

Date: 14 April 2024
Orbit: 676 x 778 km, 97.1° (Epoch: 18 May)

Event Time Altitude Azimuth Distance (km) Brightness Sun altitude
Rises 00:29:39 0° 10° (N) 3,104 8.1 -14.6°
Reaches altitude 10° 00:32:00 10° 5° (N) 2,168 7.1 -14.3°
Maximum altitude 00:36:30 46° 293° (WNW) 923 4.2 -13.8°
Enters shadow 00:39:19 21° 230° (SW) 1,524 4.9 -13.5°
